Regional Weather Roundup
Issued by NWS

Home | Current Version | Previous Version | Graphics & Text | Print | Product List | Glossary On
Versions: 1 2 3 4 5 6 7 8 9 10 11 12 13 14 15 16 17 18 19 20 21 22 23 24 25 26 27 28 29 30 31 32 33 34 35 36 37 38 39 40 41 42 43 44 45 46 47 48 49 50
000
ASUS45 KCYS 250610
RWRWY

WYOMING REGIONAL WEATHER ROUNDUP
NATIONAL WEATHER SERVICE CHEYENNE WY
1200 AM MDT MON MAY 25 2015

NOTE:  "FAIR" INDICATES FEW OR NO CLOUDS BELOW 12,000 FEET
WITH NO SIGNIFICANT WEATHER AND/OR OBSTRUCTIONS TO VISIBILITY.

WYZ001-250700-
YELLOWSTONE NATIONAL PARK

CITY           SKY/WX    TMP DP  RH WIND       PRES   REMARKS
LK YELLOWSTONE   N/A     35  33  92 NW3       30.05S
6HR MIN TEMP:  35; 6HR MAX TEMP:  47;

W YELLOWSTONE  NOT AVBL

$$
WYZ002>013-054>058-071-098>099-250700-
NORTHERN WYOMING

CITY           SKY/WX    TMP DP  RH WIND       PRES   REMARKS
JACKSON        MOCLDY    45  37  76 N12       29.96S
CODY           CLOUDY    48  43  81 W5        29.97S
GREYBULL       FAIR      51  45  79 NW8       29.89S
6HR MIN TEMP:  50; 6HR MAX TEMP:  57; 6HR PCP: TRACE;

WORLAND        CLOUDY    51  48  89 W3        29.90F
6HR MIN TEMP:  50; 6HR MAX TEMP:  54; 6HR PCP: TRACE;

SHERIDAN       LGT RAIN  50  48  93 N6        29.94R
6HR MIN TEMP:  50; 6HR MAX TEMP:  51; 6HR PCP:  0.26;

BUFFALO        LGT RAIN  46  45  96 NW6       29.94S
6HR MIN TEMP:  46; 6HR MAX TEMP:  48; 6HR PCP:  0.63;

GILLETTE       CLOUDY    50  47  89 NE7       29.90F
6HR MIN TEMP:  50; 6HR MAX TEMP:  51; 6HR PCP: TRACE;

HULETT         CLOUDY    50  48  93 NE3       29.90F
NEWCASTLE      CLOUDY    50  48  93 CALM      29.88S

$$
WYZ014>020-022>026-101>103-250700-
CENTRAL WYOMING

CITY           SKY/WX    TMP DP  RH WIND       PRES   REMARKS
BIG PINEY      CLOUDY    43  41  93 SW6       30.00S
6HR MIN TEMP:  41; 6HR MAX TEMP:  46; 6HR PCP:  0.02;

PINEDALE       CLOUDY    41  41 100 CALM      30.01S
DUBOIS         CLOUDY    39  36  87 NW3       29.99S
LANDER         LGT RAIN  45  42  89 W8        29.95S
6HR MIN TEMP:  45; 6HR MAX TEMP:  50; 6HR PCP:  0.06;

RIVERTON       LGT RAIN  47  44  90 W7        29.96S
6HR MIN TEMP:  46; 6HR MAX TEMP:  51; 6HR PCP:  0.04;

CASPER         CLOUDY    45  43  93 N6        29.92R
6HR MIN TEMP:  45; 6HR MAX TEMP:  51; 6HR PCP:  0.03;

DOUGLAS        CLOUDY    46  45  96 NW6       29.90S
6HR MIN TEMP:  44; 6HR MAX TEMP:  51; 6HR PCP: TRACE;


$$
WYZ021-027>030-104>119-250700-
SOUTHERN WYOMING

CITY           SKY/WX    TMP DP  RH WIND       PRES   REMARKS
EVANSTON       CLOUDY    42  39  89 S6        29.99S
6HR MIN TEMP:  41; 6HR MAX TEMP:  49; 6HR PCP:  0.02;

KEMMERER       CLOUDY    41  39  93 SE7       30.01R
FORT BRIDGER   CLOUDY    43  43 100 S8        30.02S
ROCK SPRINGS   CLOUDY    43  39  86 CALM      29.98F
6HR MIN TEMP:  42; 6HR MAX TEMP:  45; 6HR PCP:  0.01;

DIXON          CLOUDY    41  39  91 NE5       29.99S
RAWLINS        MOCLDY    43  38  82 W3        29.96R
6HR MIN TEMP:  43; 6HR MAX TEMP:  53;

SARATOGA       FAIR      37  36  93 SW7       29.97S WCI  32
LARAMIE        CLOUDY    38  36  92 W3        29.93S
6HR MIN TEMP:  36; 6HR MAX TEMP:  48;

CHEYENNE       MOCLDY    45  39  79 N8        29.89F
6HR MIN TEMP:  44; 6HR MAX TEMP:  53;

TORRINGTON     LGT RAIN  52  49  89 NE6       29.85S
6HR MIN TEMP:  51; 6HR MAX TEMP:  57; 6HR PCP:  0.02;

PINE BLUFFS    MOCLDY    45  41  87 NW3       29.87S

$$



USA.gov is the U.S. government's official web portal to all federal, state and local government web resources and services.